Regional Weather Roundup
Issued by NWS

Home | Current Version | Previous Version | Text Only | Print | Product List | Glossary On
Versions: 1 2 3 4 5 6 7 8 9 10 11 12 13 14 15 16 17 18 19 20 21 22 23 24 25 26 27 28 29 30 31 32 33 34 35 36 37 38 39 40 41 42 43 44 45 46 47 48 49 50
000
ASUS44 KFWD 271615
RWRTX
NORTH TEXAS HOURLY WEATHER ROUNDUP
NATIONAL WEATHER SERVICE FORT WORTH TX
1100 AM CDT WED AUG 27 2014

NOTE: "FAIR" INDICATES FEW OR NO CLOUDS BELOW 12,000 FEET WITH NO
SIGNIFICANT WEATHER AND/OR OBSTRUCTIONS TO VISIBILITY.

TXZ118-119-271700-
DALLAS/FORT WORTH METROPLEX

CITY           SKY/WX    TMP DP  RH WIND       PRES   REMARKS
DFW AIRPORT    MOSUNNY   88  70  55 E6        30.07S HX  93
DALLAS LOVE    MOSUNNY   88  69  53 CALM      30.08R HX  92
FTW MEACHAM    SUNNY     89  69  51 VRB7      30.07R HX  93
DAL-EXECUTIVE  MOSUNNY   89  67  47 E8        30.08R HX  92
FTW-ALLIANCE   MOSUNNY   88  68  51 CALM      30.07R HX  91
FTW-NAS-JRB    MOSUNNY   91  66  43 S5        30.11R HX  93
FTW-SPINKS     MOSUNNY   88  70  55 E5        30.10R HX  92
ARLINGTON      SUNNY     87  68  52 VRB3      30.08R HX  90
GRAND PRAIRIE  SUNNY     88  66  48 CALM      30.09R HX  90
ADDISON        MOSUNNY   88  66  48 SE7       30.09S HX  90
MESQUITE       SUNNY     88  64  45 CALM      30.08R
LANCASTER      PTSUNNY   88  62  41 CALM      30.08S
$$

TXZ091>094-102>105-117-120-121-131>134-271700-
NORTH CENTRAL TEXAS

CITY           SKY/WX    TMP DP  RH WIND       PRES   REMARKS
SHRMAN/DENISON SUNNY     87  69  54 SE5       30.10S HX  90
GAINESVILLE    SUNNY     85  71  60 E5        30.11S HX  90
BOWIE          SUNNY     87  68  53 CALM      30.10S HX  90
BRIDGEPORT     SUNNY     88  64  44 CALM      30.10S
DECATUR        SUNNY     85  66  52 S3        30.10R
DENTON         SUNNY     88  69  53 VRB5      30.08R HX  92
MCKINNEY       SUNNY     87  65  47 VRB5      30.09R
GREENVILLE     MOSUNNY   86  66  51 CALM      30.09
ROCKWALL       SUNNY     87  69  54 CALM      30.07F HX  91
TERRELL        MOSUNNY   89  66  46 E3        30.08S HX  91
WAXAHACHIE     MOSUNNY   85  66  51 NE3       30.09S
CLEBURNE       SUNNY     86  70  58 CALM      30.10R HX  90
GRANBURY       SUNNY     88  69  51 NE5       30.09R HX  92
$$

TXZ083>090-098>101-113>116-127>130-139>142-154-155-271700-
WESTERN NORTH TEXAS

CITY           SKY/WX    TMP DP  RH WIND       PRES   REMARKS
WICHITA FALLS  SUNNY     88  68  51 S8        30.08S HX  91
WF-KICKAPOO    SUNNY     90  65  43 SE5       30.09S HX  91
VERNON         SUNNY     90  64  42 S7        30.10R HX  91
ABILENE        PTSUNNY   88  67  49 S7        30.11R HX  91
ABILENE-DYESS  SUNNY     87  69  54 S5        30.10R HX  91
BRECKENRIDGE   SUNNY     90  64  42 SE6       30.08S HAZE    HX  92
GRAHAM         SUNNY     91  65  42 S5        30.07S HX  92
MINERAL WELLS  SUNNY     89  67  47 S6        30.07S HX  92
STEPHENVILLE   SUNNY     87  67  51 CALM      30.12S
COMANCHE       MOSUNNY   89  66  46 E6        30.09S HX  91
BROWNWOOD      SUNNY     86  66  51 CALM      30.09F
COLEMAN        SUNNY     85  66  52 S6        30.11S
BRADY          SUNNY     84  66  54 SE5       30.10S
$$

TXZ143>147-156>162-174-175-271700-
CENTRAL TEXAS

CITY           SKY/WX    TMP DP  RH WIND       PRES   REMARKS
WACO           MOSUNNY   89  69  51 VRB6      30.06S HX  93
WACO-TSTC      MOSUNNY   88  70  55 CALM      30.06R HX  92
WACO-MCGREGOR  SUNNY     88  68  51 NE6       30.08R HX  91
HILLSBORO      MOSUNNY   88  67  49 CALM      30.08R HX  90
CORSICANA      PTSUNNY   88  65  46 SE5       30.08R HX  90
MEXIA          PTSUNNY   88  66  48 NE8       30.06S HX  90
HEARNE           N/A     88  68  52 CALM      30.05S HX  91
CAMERON        PTSUNNY   89  72  56 N5        30.05S HX  95
TEMPLE         MOSUNNY   90  66  45 CALM      30.06S HX  92
KILLEEN        PTSUNNY   84  70  61 NE6       30.08R
KILLEEN-SKYLRK PTSUNNY   88  68  51 CALM      30.07S HX  91
FORT HOOD      PTSUNNY   88  70  55 CALM      30.07S HX  93
GATESVILLE     MOSUNNY   86  68  54 E5        30.10R
HAMILTON       MOSUNNY   88  66  47 SE3       30.11R HX  90
LAMPASAS       PTSUNNY   87  71  59 SE6       30.08R HX  92
$$

TXZ095>097-106>112-122>126-135>138-148>153-164>167-271700-
EAST TEXAS

CITY           SKY/WX    TMP DP  RH WIND       PRES   REMARKS
PARIS          SUNNY     86  66  51 NE3       30.11R
SULPHUR SPRNGS SUNNY     87  68  53 E3        30.11R HX  90
CLARKSVILLE    SUNNY     88  66  48 SE3       30.09S HX  90
MOUNT PLEASANT SUNNY     88  62  42 SE6       30.10S
GILMER         MOSUNNY   84  68  58 NE3       30.10S
MINEOLA        SUNNY     88  66  48 E5        30.09S HX  90
TYLER          SUNNY     88  64  44 E8        30.08R
LONGVIEW       MOSUNNY   89  63  41 SE8       30.08R HX  90
MARSHALL       MOSUNNY   89  70  54 E3        30.10S HX  94
ATHENS         MOSUNNY   86  68  54 NE7       30.07R
PALESTINE      SUNNY     86  67  53 E5        30.08S
JACKSONVILLE   MOSUNNY   85  64  47 NE7       30.11R
HENDERSON      MOSUNNY   89  61  39 E9        30.09S
NACOGDOCHES    MOSUNNY   84  66  54 E8        30.07S
LUFKIN         MOSUNNY   87  68  52 NE7       30.06R HX  90
$$

SUPPLEMENTAL OBSERVATIONS (CENTRAL)

CITY           SKY/WX    TMP DP  RH WIND       PRES   REMARKS
LAKE TEXOMA      N/A     86  70  58 E1          N/A  HX  90
CADDO GRASSLND   N/A     90  73  58 SW2         N/A  HX  98
PAT MAYSE LAKE   N/A     86  68  54 NE1         N/A
GREENVILLE       N/A     88  68  51 NE2         N/A  HX  91
PALESTINE        N/A     88  64  45 E6          N/A
MCGREGOR         N/A     90  68  48 E7          N/A  HX  93
TEMPLE           N/A     90  70  51 E7          N/A  HX  95
$$

SUPPLEMENTAL OBSERVATIONS (WEST)

CITY           SKY/WX    TMP DP  RH WIND       PRES   REMARKS
MILLERS CREEK    N/A     91  70  49 SE7         N/A  HX  97
POSSUM KINGDOM   N/A     91  66  43 E5          N/A  HX  94
GRANBURY         N/A     90  68  48 E6          N/A  HX  93
HAMBY            N/A     88  64  45 S7          N/A
IVIE RESERVOIR   N/A     88  66  48 S8          N/A  HX  90
COLORADO BEND    N/A     88  66  48 E6          N/A  HX  90
$$

SUPPLEMENTAL OBSERVATIONS (EAST)

CITY           SKY/WX    TMP DP  RH WIND       PRES   REMARKS
LINDEN           N/A     84  66  54 E2          N/A
GILMER           N/A     86  66  51 E2          N/A
HENDERSON        N/A     90  64  43 E9          N/A  HX  91
LUFKIN           N/A     90  66  45 MISG        N/A  HX  92
S SABINE NF      N/A     88  72  58 E6          N/A  HX  94
$$

SUPPLEMENTAL OBSERVATIONS ARE A COLLECTION OF AUTOMATED INSTRUMENTS
THAT ARE MAINTAINED BY A VARIETY OF FEDERAL AND STATE AGENCIES.
CERTAIN ELEMENTS...SUCH AS HUMIDITY VALUES AND SUSTAINED WIND
SPEEDS...MAY BE APPROXIMATED.



USA.gov is the U.S. government's official web portal to all federal, state and local government web resources and services.